Вернуться в каталог

TITAN 3C TRANSTAGE R/B

АктивенGEO
NORAD 8918·ROCKET BODY·🇺🇸 United States

Запущен Jun 26, 1976 с Cape Canaveral Space Force Station

Loading…

TLE

СвежийSource: Space-Track

Эпоха: Sep 14, 2026, 03:47 UTC

1 08918U 76059C   26257.15813208  .00000113  00000-0  00000-0 0  9998
2 08918   2.5086 259.1771 0009563 283.5080  75.8324  1.00547005 26346

Отслеживайте TITAN 3C TRANSTAGE R/B в реальном времени с AllMySat

Download on the App Store